Location: Little Bennett Regional Park
(39.2840°N, 77.2890°W)
Time: 07:17:19
(UTC-05:00)

Daily predictions for brighter satellites

Satellite Brightness Start Highest point End
(mag) Time Altitude Azimuth Time Altitude Azimuth Time Altitude Azimuth
Cosmos 972 Rocket 3.9 17:10:58 10° N 17:15:48 57° ENE 17:20:38 10° SSE
Cosmos 1340 2.7 17:13:03 10° S 17:16:48 86° W 17:20:36 10° N
ALOS 3.9 17:15:01 10° E 17:17:11 13° ENE 17:19:20 10° NE
SMAP 3.1 17:21:29 10° SSE 17:26:02 59° ENE 17:30:38 10° N
USA 161 3.7 17:25:38 10° NW 17:26:50 14° WNW 17:28:04 10° WSW
Cosmos 2233 Rocket 4.1 17:21:32 10° S 17:27:38 58° E 17:33:43 10° NNE
Cosmos 1763 Rocket 3.7 17:24:19 10° N 17:29:21 48° ENE 17:34:18 10° SE
Cosmos 1908 Rocket 4.2 17:26:33 10° NNE 17:30:28 32° ENE 17:34:22 10° SE
ERS-2 3.2 17:27:33 10° ESE 17:30:30 24° ENE 17:33:30 10° NNE
Cosmos 1733 Rocket 3.1 17:28:24 10° N 17:32:52 88° E 17:37:19 10° S
Cosmos 1844 Rocket 3.7 17:28:06 10° SW 17:33:31 48° WNW 17:38:58 10° NNE
AQUARIUS 4.1 17:29:56 10° SSE 17:34:23 71° ENE 17:38:53 10° N
Cosmos 2242 Rocket 4.1 17:30:47 10° SSW 17:35:19 67° W 17:39:51 10° N
CZ-2C R/B 4.1 17:34:13 10° SSW 17:38:48 38° W 17:43:33 10° NNW
COSMOS 2406 3.8 17:33:10 10° NNW 17:38:51 64° WSW 17:44:27 10° S
Cosmos 1814 Rocket 4.0 17:35:50 10° NNW 17:41:12 70° ENE 17:46:32 10° SSE
Cosmos 1862 Rocket 3.8 17:37:53 10° SSW 17:42:17 74° W 17:46:45 10° N
Sich 1 Rocket 4.1 17:38:22 10° N 17:42:29 37° ENE 17:46:37 10° SE
Meteor 1-14 Rocket 4.2 17:38:34 10° N 17:44:12 64° E 17:49:42 10° SSE
CZ-4C R/B 4.0 17:41:24 10° N 17:46:32 21° NE 17:50:24 15° ENE
SL-27 R/B 3.2 17:45:27 10° N 17:48:23 28° ENE 17:51:19 10° SE
IRS-1A Rocket 4.3 17:43:53 10° SSE 17:49:41 70° ENE 17:55:23 10° N
Ariane Rocket 3.5 17:48:42 10° S 17:53:44 65° WSW 17:58:48 10° NNW
FENGYUN 3A 4.3 17:49:30 10° SE 17:54:16 33° ENE 17:59:01 10° N
USA 234 3.4 17:52:30 13° NE 17:58:18 60° SE 18:04:44 10° SSW
COSMOS 2455 3.6 17:52:40 10° SW 17:58:31 53° WNW 18:04:25 10° NNE
Cosmos 540 Rocket 4.0 17:54:09 10° N 17:58:51 34° ENE 18:03:30 10° SE
Okean 1-7 3.4 17:57:17 10° SSE 18:01:24 43° E 18:05:34 10° NNE
CZ-4 R/B 4.3 17:57:57 10° SSE 18:02:04 70° ENE 18:06:14 10° N
Cosmos 2297 4.1 17:56:47 10° S 18:02:07 43° ESE 18:06:35 15° NE
Cosmos 1833 Rocket 3.1 17:57:45 10° N 18:02:58 37° ENE 18:08:09 10° SE
Cosmos 841 Rocket 3.4 17:58:43 10° NNW 18:04:01 75° ENE 18:09:15 10° SSE
Cosmos 1633 2.7 18:01:37 10° N 18:05:11 47° E 18:08:43 10° SSE
MTI 3.6 18:03:14 10° NNE 18:06:28 86° ESE 18:09:41 10° SSW
CZ-4 R/B 1.8 18:03:05 10° S 18:06:56 60° W 18:10:44 10° NNW
Cosmos 2278 Rocket 2.5 18:02:16 10° SSW 18:07:54 69° WNW 18:13:36 10° NNE
Lacrosse 5 4.1 18:06:22 10° NW 18:08:32 13° NNW 18:10:43 10° N
Cosmos 1486 Rocket 4.1 18:04:05 10° SSW 18:09:16 78° WNW 18:14:33 10° NNE
Cosmos 44 Rocket 4.3 18:08:50 10° N 18:12:51 25° NE 18:13:12 25° NE
MOS 1 4.2 18:08:42 10° SSE 18:14:21 73° ENE 18:20:04 10° N
Cosmos 1782 Rocket 3.5 18:10:39 10° N 18:14:56 59° E 18:19:14 10° SSE
YAOGAN 1 2.9 18:15:10 10° S 18:19:27 67° WSW 18:23:47 10° NNW
COSMO-SKYMED 1 2.5 18:15:19 10° NNE 18:19:41 89° ESE 18:24:01 10° SSW
Cosmos 1072 Rocket 4.4 18:15:45 10° S 18:21:55 74° E 18:28:13 10° N
SPOT 3 Rocket 3.4 18:18:48 10° SSE 18:23:59 72° ENE 18:29:12 10° N
Cosmos 1354 Rocket 3.9 18:20:24 10° S 18:25:40 75° ESE 18:29:47 17° NNE
Cosmos 292 Rocket 4.3 18:22:10 10° N 18:26:26 36° ENE 18:26:26 36° ENE
Cosmos 1441 Rocket 4.1 18:23:43 10° SSE 18:26:30 33° SE 18:26:30 33° SE
BREEZE-M DEB (TANK) 2.4 18:25:35 10° WSW 18:27:38 52° NNW 18:27:47 50° N
Nadezhda 4 Rocket 4.4 18:22:16 10° N 18:27:54 37° ENE 18:33:29 10° SE
Cosmos 1606 3.0 18:24:20 10° SSW 18:28:06 66° W 18:31:52 10° N
MONITOR-E 4.2 18:25:06 10° S 18:28:07 75° WSW 18:31:11 10° NNW
Cosmos 2034 Rocket 4.1 18:22:18 10° SSE 18:28:28 55° E 18:34:39 10° NNE
Cosmos 2221 Rocket 3.5 18:27:44 10° S 18:32:08 88° E 18:36:18 12° N
EO 1 Del DPAF 3.8 18:30:34 10° N 18:34:20 58° WNW 18:38:04 10° SSW
NOAA 12 4.0 18:33:44 10° SSE 18:39:04 85° ENE 18:44:25 10° NNW
Meteor 2-6 Rocket 4.1 18:34:46 10° S 18:40:11 88° W 18:45:46 10° N
CENTAUR R/B 4.4 18:36:58 10° W 18:41:53 23° NW 18:47:18 10° NNE
Cosmos 1782 4.0 18:40:46 10° SSW 18:44:36 43° W 18:48:28 10° N
Cosmos 44 3.6 18:41:19 10° NNW 18:45:16 46° NNE 18:45:16 46° NNE
Cosmos 2082 Rocket 2.1 18:43:17 10° NNW 18:49:00 87° ENE 18:54:39 10° SSE
Meteor 2-20 4.3 18:46:35 10° N 18:52:40 74° E 18:58:43 10° SSE
Okean 2 Rocket 3.1 18:49:29 10° N 18:54:01 79° W 18:58:31 10° S
ALOS 2.6 18:49:26 10° S 18:54:03 64° W 18:58:42 10° NNW
Cosmos 1464 Rocket 4.3 18:51:19 10° SSW 18:57:23 64° W 19:03:29 10° N
FengYun 1-2 T 4.1 18:55:40 34° SE 18:58:06 67° ENE 19:03:37 10° N
Thor Agena Rocket 3.4 18:59:06 65° SE 18:59:06 65° SE 19:03:55 10° S
Cosmos 405 Rocket 3.1 18:55:27 10° SSW 18:58:57 59° WSW 18:58:57 59° WSW
Meteor 1-27 Rocket 3.8 19:01:05 10° S 19:06:59 83° W 19:11:11 21° N
BREEZE-M R/B 4.2 19:20:25 10° WNW 19:22:51 39° WSW 19:22:51 39° WSW
CZ-4C R/B 2.8 19:28:56 10° NNW 19:35:39 72° NNE 19:35:39 72° NNE
Cosmos 968 Rocket 4.5 19:33:35 10° SSW 19:37:11 42° WSW 19:37:11 42° WSW
USA 234 4.0 19:39:51 39° N 19:41:08 43° NNW 19:47:12 10° W
Cosmos 1833 Rocket 4.4 19:41:56 10° NW 19:46:42 29° WSW 19:51:28 10° SSW
